Starlink 5203

operational
NORAD ID: 54104 Int'l Des: 2022-136 Owner: SPXS Country: US Constellation: starlink
LEOCIRCULAR

About Starlink 5203

Description loading...

Live Position

Loading 3D Globe...

Upcoming Passes

Altitude History

Altitude vs Time

uPlot chart will show altitude changes over time

Two-Line Element Set

1 54104U 22136BF 26062.14766592 .00000060 00000-0 21864-4 0 9995
2 54104 53.2175 328.0485 0001533 81.3320 278.7846 15.08842692186493
Epoch: Mar 3, 2026 • Age: 26 hours

Current Status

Altitude 545.2 km
Velocity 7.60 km/s
Sub-Earth Point 53.19°N, 147.33°W
Launch Date Oct 20, 2022
Age 3.3 years
Type internet

Technical Details

Classification Payload
Mass 305.00 kg
Dry Mass 290.00 kg
Total Mass 305.00 kg
Length 0.20 m
Diameter 2.80 m
Span 9.00 m
Shape Box + pan
Manufacturer SPXS
Bus Type Starlink
Phase Status In Orbit
Owner/State SPXS/US

Large Constellations

Loading constellations...